sat.trackr.live / text

‹ back to catalog

SDA_1680

NORAD 65990 · 2025-230S

PAYLOAD ACTIVE UNKNOWN

§ Identity

Operator
Country
US
Launch date
2025-10-15
Launch site
AFWTR
Launch vehicle
Mass (kg)
RCS (m²)

External: N2YO · Heavens-Above · Gunter

§ Orbital elements

Epoch: 2026-09-20T08:14:54.009888Z

Period
103.95 min
Inclination
81.2990°
Eccentricity
0.0003362
Mean motion
13.85242343 rev/d
Perigee alt
942.9 km
Apogee alt
947.8 km
Semi-major
7,323.5 km
B*
7.4628e-5
RAAN
123.3058°
Arg perigee
310.5135°
Mean anomaly
49.5728°
Rev number
4,699

§ Raw data

SDA_16801 65990U 25230S   26263.34368067  .00000097  00000+0  74628-4 0  99932 65990  81.2990 123.3058 0003362 310.5135  49.5728 13.85242343 46992

JSON: /api/v1/satellites/65990 · /tle

For live sub-satellite position, see the globe view (requires WebGL).

§ Visibility from observer

Set your observer location to see the next 7 days of passes ≥ 10°. The values pass through the URL so the page stays shareable.

No JS? Fill the form by hand. The geolocation button needs JavaScript.